This is the latest recevied weather packets stored in our database for station/object W3EJE-13. If no packets are shown the sender has not sent any weather packets the latest 10 day(s).
| Time | Temp. | Humidity | Pressure | Rain* | Wind** | Luminosity | Snow |
|---|---|---|---|---|---|---|---|
| 1777650603 | 11.67° C | 59% | 1013.9 hPa | 0 mm | - | 428 W/m² | - |
| 1777650301 | 11.67° C | 60% | 1013.9 hPa | 0 mm | - | 425 W/m² | - |
| 1777649997 | 12.78° C | 60% | 1014.1 hPa | 0 mm | - | 396 W/m² | - |
| 1777649695 | 12.78° C | 59% | 1014.2 hPa | 0 mm | - | 536 W/m² | - |
| 1777649390 | 11.67° C | 61% | 1014.1 hPa | 0 mm | - | 578 W/m² | - |
| 1777649088 | 11.67° C | 59% | 1014.2 hPa | 0 mm | - | 324 W/m² | - |
| 1777648785 | 11.67° C | 59% | 1014.3 hPa | 0 mm | - | 450 W/m² | - |
| 1777648483 | 11.11° C | 62% | 1014.5 hPa | 0 mm | - | 371 W/m² | - |
| 1777648179 | 12.22° C | 60% | 1014.4 hPa | 0 mm | - | 487 W/m² | - |
| 1777647874 | 11.67° C | 60% | 1014.3 hPa | 0 mm | - | 625 W/m² | - |
| 1777647571 | 11.11° C | 62% | 1014.2 hPa | 0 mm | - | 231 W/m² | - |
| 1777647267 | 10.56° C | 64% | 1014.6 hPa | 0 mm | - | 323 W/m² | - |
| 1777646966 | 10.56° C | 63% | 1014.5 hPa | 0 mm | - | 420 W/m² | - |
| 1777646661 | 11.11° C | 64% | 1014.5 hPa | 0 mm | - | 462 W/m² | - |
| 1777646357 | 11.11° C | 66% | 1014.5 hPa | 0 mm | - | 457 W/m² | - |
| 1777646053 | 10.56° C | 64% | 1014.6 hPa | 0 mm | - | 560 W/m² | - |
| 1777645750 | 10.56° C | 63% | 1014.5 hPa | 0 mm | - | 546 W/m² | - |
| 1777645447 | 10.56° C | 65% | 1014.6 hPa | 0 mm | - | 504 W/m² | - |
| 1777645143 | 10.56° C | 67% | 1014.5 hPa | 0 mm | - | 454 W/m² | - |
| 1777644839 | 10° C | 68% | 1014.5 hPa | 0 mm | - | 601 W/m² | - |
| 1777644537 | 10° C | 68% | 1014.6 hPa | 0 mm | - | 409 W/m² | - |
| 1777644233 | 10° C | 68% | 1014.7 hPa | 0 mm | - | 274 W/m² | - |
| 1777643930 | 9.44° C | 70% | 1014.8 hPa | 0 mm | - | 363 W/m² | - |
| 1777643627 | 9.44° C | 70% | 1014.8 hPa | 0 mm | - | 255 W/m² | - |
| 1777643324 | 8.89° C | 70% | 1014.8 hPa | 0 mm | - | 194 W/m² | - |
* Rain latest hour (hover to see other rain measurements)
** Current wind speed in m/s (hover to see current wind gust speed)